Paducah, KY

11:57 AM CDT on April 30, 2017 (GMT -0500)
Barkley Regional

Weather History for KPAH - December, 2013

Change the Weather History Date:

Tuesday, December 24, 2013

  Actual Average Record
Temperature  
Mean Temperature 22 °F 36 °F  
Max Temperature 28 °F 44 °F 68 °F (1955)
Min Temperature 15 °F 27 °F -6 °F (1983)
Degree Days  
Heating Degree Days 43 29  
Month to date heating degree days 642 644  
Since 1 July heating degree days 1444 1421  
Cooling Degree Days 0 0  
Month to date cooling degree days 0 0  
Year to date cooling degree days 1478 1542  
Moisture  
Dew Point 11 °F    
Average Humidity 60    
Maximum Humidity 74    
Minimum Humidity 45    
Precipitation  
Precipitation T in 0.15 in 1.62 in (2009)
Month to date precipitation 7.94 3.64  
Year to date precipitation 60.14 48.13  
Snow  
Snow T in 0.10 in 3.20 in (2010)
Month to date snowfall 5.2 1.6  
Since 1 July snowfall 5.2 1.7  
Snow Depth 0.00 in    
Sea Level Pressure  
Sea Level Pressure 30.55 in    
Wind  
Wind Speed 6 mph (North)    
Max Wind Speed 16 mph    
Max Gust Speed 21 mph    
Visibility 9 miles    
Events Snow    
T = Trace of Precipitation, MM = Missing Value Source: NWS Daily Summary

Daily Weather History Graph

Daily Weather History Graph

Search for Another Location

Airport or City:

Trip Planner

Search our weather history database for the weather conditions in past years. The results will help you decide how hot, cold, wet, or windy it might be!

Date:

Astronomy

Dec. 24, 2013 Rise Set
Actual Time 7:06 AM CST 4:43 PM CST
Civil Twilight 6:37 AM CST 5:12 PM CST
Nautical Twilight 6:04 AM CST 5:45 PM CST
Astronomical Twilight 5:32 AM CST 6:16 PM CST
Moon 11:42 PM CST (12/24) 11:09 AM CST (12/24)
Length of Visible Light 10h 35m
Length of Day
9h 37m
Waning Gibbous, 58% of the Moon is Illuminated
Dec 24
Waning Gibbous
Dec 25
Last Quarter
Jan 1
New
Jan 7
First Quarter
Jan 15
Full

Hourly Weather History & Observations

Time (CST) Temp. Windchill Dew Point Humidity Pressure Visibility Wind Dir Wind Speed Gust Speed Precip Events Conditions
12:53 AM 27.0 °F 16.7 °F 17.1 °F 66% 30.52 in 10.0 mi NW 11.5 mph - N/A   Overcast
1:53 AM 25.0 °F 14.2 °F 18.0 °F 75% 30.53 in 4.0 mi North 11.5 mph - 0.00 in Snow Light Snow
2:41 AM 23.0 °F 10.1 °F 16.0 °F 74% 30.54 in 3.0 mi NNW 15.0 mph - 0.00 in Snow Light Snow
2:53 AM 21.9 °F 9.8 °F 15.1 °F 75% 30.56 in 6.0 mi NNW 12.7 mph 19.6 mph 0.00 in Snow Light Snow
3:24 AM 21.9 °F 9.8 °F 14.0 °F 72% 30.55 in 8.0 mi NW 12.7 mph - 0.00 in Snow Light Snow
3:48 AM 19.4 °F 6.6 °F 10.4 °F 68% 30.55 in 10.0 mi NNW 12.7 mph - 0.00 in   Overcast
3:53 AM 19.0 °F 5.6 °F 10.0 °F 68% 30.57 in 10.0 mi NW 13.8 mph - 0.00 in   Mostly Cloudy
4:53 AM 17.1 °F 8.7 °F 10.0 °F 74% 30.58 in 10.0 mi NW 5.8 mph - N/A   Partly Cloudy
5:13 AM 18.0 °F 7.7 °F 10.0 °F 71% 30.56 in 10.0 mi NNW 8.1 mph - N/A   Mostly Cloudy
5:53 AM 18.0 °F 7.7 °F 10.0 °F 71% 30.59 in 10.0 mi NW 8.1 mph - 0.00 in   Overcast
6:42 AM 16.0 °F 7.4 °F 8.1 °F 71% 30.60 in 10.0 mi NW 5.8 mph - N/A   Partly Cloudy
6:53 AM 16.0 °F 6.3 °F 8.1 °F 71% 30.62 in 10.0 mi NW 6.9 mph - N/A   Clear
7:53 AM 17.1 °F 5.0 °F 8.1 °F 68% 30.62 in 10.0 mi North 10.4 mph - N/A   Clear
8:53 AM 18.0 °F 7.7 °F 7.0 °F 62% 30.65 in 10.0 mi North 8.1 mph - N/A   Clear
9:53 AM 19.9 °F - 7.0 °F 57% 30.65 in 10.0 mi Calm Calm - N/A   Clear
10:53 AM 21.9 °F 17.2 °F 7.0 °F 53% 30.64 in 10.0 mi Variable 3.5 mph - N/A   Clear
11:53 AM 23.0 °F - 5.0 °F 46% 30.63 in 10.0 mi Calm Calm - N/A   Clear
12:53 PM 24.1 °F 19.7 °F 7.0 °F 48% 30.60 in 10.0 mi Variable 3.5 mph - N/A   Clear
1:53 PM 26.1 °F - 8.1 °F 47% 30.56 in 10.0 mi Calm Calm - N/A   Clear
2:53 PM 27.0 °F 19.5 °F 10.0 °F 49% 30.54 in 10.0 mi East 6.9 mph - N/A   Clear
3:53 PM 26.1 °F 20.5 °F 9.0 °F 49% 30.55 in 10.0 mi East 4.6 mph - N/A   Clear
4:53 PM 25.0 °F 20.7 °F 9.0 °F 51% 30.53 in 10.0 mi ESE 3.5 mph - N/A   Clear
5:53 PM 23.0 °F 17.0 °F 10.9 °F 60% 30.52 in 10.0 mi ESE 4.6 mph - N/A   Clear
6:53 PM 21.9 °F 13.4 °F 12.0 °F 66% 30.50 in 10.0 mi East 6.9 mph - N/A   Clear
7:53 PM 23.0 °F - 12.9 °F 65% 30.49 in 10.0 mi Calm Calm - N/A   Clear
8:53 PM 21.9 °F - 12.0 °F 66% 30.48 in 10.0 mi Calm Calm - N/A   Clear
9:53 PM 21.0 °F 16.2 °F 12.9 °F 71% 30.47 in 10.0 mi SE 3.5 mph - N/A   Clear
10:53 PM 21.9 °F 15.7 °F 12.9 °F 68% 30.46 in 10.0 mi SE 4.6 mph - N/A   Clear
11:53 PM 21.9 °F 14.5 °F 12.9 °F 68% 30.43 in 10.0 mi SE 5.8 mph - N/A   Clear